Starlink 31779

operational
NORAD ID: 59744 Int'l Des: 2024-090 Owner: SPXS Country: US Constellation: starlink
LEOCIRCULAR

About Starlink 31779

Description loading...

Live Position

Loading 3D Globe...

Upcoming Passes

Altitude History

Altitude vs Time

uPlot chart will show altitude changes over time

Two-Line Element Set

1 59744U 24090Q 25304.68951498 .00000490 00000-0 27338-4 0 9998
2 59744 43.0039 191.8169 0001818 274.9974 85.0670 15.27572382 83712
Epoch: Oct 31, 2025 • Age: 23 hours

Current Status

Altitude 495.1 km
Velocity 7.62 km/s
Sub-Earth Point -42.89°S, 172.75°W
Launch Date May 13, 2024
Age 1.4 years
Type internet

Technical Details

Classification Payload
Mass 730.00 kg
Dry Mass 700.00 kg
Total Mass 730.00 kg
Length 0.30 m
Diameter 4.10 m
Span 29.00 m
Shape Box + pan
Manufacturer SPXS
Bus Type Starlink V2M
Phase Status In Orbit
Owner/State SPXS/US

Large Constellations

Loading constellations...